Flag for Japan Weather past 2 weeks in Sagamihara, Japan

Now
62 °F

Clear.


Feels Like: 62 °F
Forecast: 54 / 72 °F
Wind: 6 mph from South

Location: Yokota Ab

Current Time: Apr 29, 2015 at 12:05:17 AM

Latest Report: Apr 28, 2015 at 10:58 PM


Visibility: 8 mi

Pressure: 30.09 "Hg

Humidity: 87%

Dew point: 58 °F

Location of SagamiharaLocation

Historic Weather in Sagamihara — Graph

°F

Sagamihara temperature yesterday

Maximum temperature yesterday: 82 °F (at 11:58 AM)
Minimum temperature yesterday: 57 °F (at 4:58 AM)
Average temperature yesterday: 69 °F

Past Weeks' High & Low Weather Summary

 TemperatureHumidityPressure
High82 °F (Apr 28, 11:58 AM)100% (Apr 13, 10:01 PM)30.24 "Hg (Apr 13, 10:01 PM)
Low43 °F (Apr 18, 5:58 AM)27% (Apr 23, 11:58 AM)29.51 "Hg (Apr 15, 2:58 PM)
Average61 °F70%29.97 "Hg
* Reported Apr 13 10:01 PM — Apr 28 10:58 PM, Sagamihara, Weather by CustomWeather, © 2015

Note: Actual official high and low records may vary slightly from our data, if they occured in-between our weather recording intervals... More about our weather records

Advertising

Sagamihara weather history for previous 24 hours

 ConditionsComfort  
Time TempWeatherWind HumidityBarometerVisibility
10:58 PM
Tue, Apr 28
62 °FClear.6 mph87%30.09 "Hg8 mi
9:58 PM63 °FClear.7 mph85%30.09 "Hg10 mi
8:58 PM64 °FClear.7 mph77%30.09 "Hg10 mi
7:58 PM66 °FClear.8 mph73%30.08 "Hg10 mi
6:58 PM69 °FClear.10 mph62%30.07 "Hg10 mi
5:58 PM71 °FSunny.10 mph53%30.05 "Hg10 mi
4:58 PM76 °FSunny.12 mph43%30.05 "Hg10 mi
3:58 PM78 °FSunny.13 mph43%30.04 "Hg10 mi
2:58 PM81 °FSunny.13 mph39%30.04 "Hg10 mi
1:58 PM81 °FSunny.12 mph36%30.06 "Hg10 mi
12:58 PM81 °FSunny.13 mph45%30.06 "Hg10 mi
11:58 AM82 °FSunny.8 mph35%30.08 "Hg10 mi
10:58 AM79 °FSunny.6 mph36%30.10 "Hg10 mi
9:58 AM77 °FSunny.6 mph43%30.11 "Hg10 mi
8:58 AM71 °FSunny.2 mph54%30.12 "Hg10 mi
7:58 AM67 °FSunny.1 mph60%30.12 "Hg10 mi
6:58 AM64 °FSunny.2 mph58%30.12 "Hg10 mi
5:58 AM59 °FSunny.No wind63%30.11 "Hg10 mi
4:58 AM57 °FSunny.1 mph66%30.09 "Hg10 mi
3:58 AM58 °FClear.No wind68%30.09 "Hg10 mi
2:58 AM59 °FClear.No wind69%30.08 "Hg10 mi
1:58 AM59 °FClear.5 mph73%30.08 "Hg10 mi
12:58 AM60 °FClear.1 mph73%30.08 "Hg10 mi
Weather by CustomWeather, © 2015

See weather overviewHow to use our weather pages